Location: Aressy
(43.2833°N, 0.3167°W)
Time: 18:44:38
(UTC+00:00)

H-2A R/B - Pass Details

Date: 28 January 2021
Orbit: 529 x 651 km, 98.3° (Epoch: 03 March)

Event Time Altitude Azimuth Distance (km) Brightness Sun altitude
Rises 17:34:45 0° 173° (S) 2,772 6.1 -5.3°
Reaches altitude 10° 17:36:51 10° 176° (S) 1,898 5.3 -5.7°
Maximum altitude 17:40:57 64° 258° (WSW) 669 3.1 -6.4°
Drops below altitude 10° 17:45:14 10° 341° (NNW) 1,988 5.2 -7.1°
Sets 17:47:30 0° 344° (NNW) 2,917 6.0 -7.5°
